SCP
-0 -0 -0 -0 -1 -0 -0 -0 -0 -0 -0 -0 -0 -0 -0 -0 -0 -0 -0 -0 -0 -0 -0 -0 0 0 0 0 -0 -0 0 0 0 0 0 0 0 -0 -0 -0 0 0 0
-0 -0 -0 -0 -0 -0 -0 -0 -0 -0 -0 -0 -0 -0 -0 -0 -0 -0 -0 -0 -0 -0 -0 -0 0 0 0 0 0 0 0 0 -0 -0 0 0 -0 -0 -0 -0 -0 0 0
0 0 -0 -0 -0 -0 -0 -0 -0 -0 -0 -0 -0 -0 -0 -0 -0 -0 -0 -0 -0 -0 -0 0 0 0 0 0 0 0 -0 -0 -0 -0 -0 0 -0 0 0 -0 -0 0 0
0 0 0 0 -0 -0 -0 -0 -0 -0 -0 -0 -0 -0 -0 -0 0 -0 -0 -0 -0 -0 -0 0 0 0 0 0 0 -0 -0 -0 -0 0 -0 -0 -0 -0 0 -0 -0 0 0
1 0 0 0 0 0 0 0 -0 -0 -0 -0 -0 -0 -0 -0 0 0 0 0 0 -0 -0 0 0 0 0 0 -0 -0 -0 -0 -0 -0 -0 0 -0 0 0 0 0 0 0
1 0 0 0 0 0 -0 -0 -0 0 0 -0 -0 -0 -0 0 0 0 0 0 0 0 0 0 -0 -0 -0 -0 -0 -0 -0 -0 -0 -0 -0 0 -0 -0 0 0 0 0 0
0 1 1 1 0 0 0 0 0 0 0 0 0 0 -0 0 0 0 0 0 0 -0 -0 -0 -0 -0 -0 -0 -0 -0 -0 -0 0 0 0 -0 0 -0 0 0 0 0 0
1 1 1 1 1 1 0 0 0 0 0 0 0 0 0 0 0 0 0 0 -0 -0 -0 -0 -0 -0 -0 -0 -0 -0 -0 -0 -0 0 -0 0 -0 -0 0 0 0 0 0
1 1 1 1 1 1 1 1 0 0 0 0 0 0 0 0 0 0 0 0 0 0 0 0 0 -0 -0 -0 -0 -0 -0 -0 -0 -0 -0 0 0 0 0 0 0 0 0
1 1 1 1 1 1 1 1 1 0 0 0 0 0 0 0 0 0 0 0 0 0 0 0 0 0 0 -0 -0 -0 -0 -0 -0 -0 -0 0 0 0 0 0 0 0 0
1 1 1 1 1 1 1 1 1 0 0 0 0 0 0 0 0 0 0 0 0 0 0 0 0 0 0 0 0 0 0 0 -0 0 0 0 0 0 0 0 0 0 0
3 2 1 1 1 0 0 1 0 0 0 0 0 0 0 -0 0 0 0 0 0 0 0 0 0 0 0 0 0 0 0 0 -0 0 0 0 0 0 0 0 0 0 0
3 3 2 2 1 0 1 1 0 0 0 0 0 0 0 0 -0 0 0 0 0 0 0 0 0 0 0 0 0 0 0 0 -0 0 0 0 0 0 0 0 0 0 0
4 3 3 2 2 -1 2 0 0 0 0 0 0 0 0 -0 0 0 0 0 0 0 0 0 0 0 0 0 0 0 0 0 0 0 0 0 0 0 0 0 0 0 0
1 5 2 0 -0 -0 2 1 -0 0 0 -0 0 1 1 0 0 1 0 1 1 0 0 0 0 0 0 0 0 0 0 0 0 0 0 0 0 0 0 0 0 0 0
4 0 0 1 0 0 3 5 4 4 2 1 1 1 1 1 1 1 1 1 1 1 0 0 0 1 0 0 0 0 0 0 0 0 0 0 0 0 0 0 0 0 0
0 0 0 1 -0 -0 0 2 2 1 2 3 1 2 1 1 2 1 2 1 1 1 3 2 3 3 2 1 0 0 0 0 0 0 0 0 0 0 0 0 0 0 0
0 -0 -1 -0 -0 -1 0 0 0 1 4 3 1 1 2 3 2 4 2 1 2 2 2 2 2 2 3 2 1 0 0 0 0 0 0 0 0 0 0 0 0 0 0
0 1 -1 1 2 -1 -1 -1 -1 -1 1 1 0 0 1 1 2 1 1 0 1 2 2 2 3 1 0 1 1 1 1 1 1 1 1 1 1 1 1 1 0 0 1
1 1 -0 3 4 1 1 2 2 4 4 4 2 2 2 2 1 0 0 0 0 1 1 1 1 1 3 1 0 -0 0 1 2 3 2 0 2 2 2 2 2 1 0
2 4 4 6 5 4 3 1 0 1 1 3 5 3 3 1 1 0 0 0 0 2 2 1 0 0 0 0 0 -0 0 -0 0 0 1 0 1 2 2 3 3 2 1
3 5 3 5 5 3 1 2 3 3 2 2 2 2 1 0 0 0 1 1 2 2 0 0 0 0 0 0 0 -0 -0 0 -0 0 1 2 3 2 1 1 1 2 2
2 3 5 4 3 3 3 2 1 1 1 1 1 1 2 3 4 3 3 3 3 0 0 0 0 0 0 0 0 0 -0 0 0 -0 0 1 1 1 2 1 1 2 1
1 2 2 2 2 1 3 3 3 2 2 1 1 0 0 1 0 1 2 2 2 0 0 -0 -0 0 -0 -0 0 0 0 0 0 0 0 0 0 2 1 2 1 2 1
0 0 0 0 0 0 1 1 1 1 1 0 1 0 0 1 1 1 0 1 2 0 0 0 0 0 0 0 0 1 0 0 0 0 0 0 0 1 1 1 1 1 0
0 0 0 0 0 0 0 0 0 0 0 0 0 0 0 0 0 1 0 1 1 1 1 1 2 1 1 1 1 1 1 1 1 1 1 0 0 0 0 0 0 2 1
Wind_Speed_500mb
25 45 45 41 39 37 35 32 29 26 23 21 21 22 22 21 23 23 23 25 29 27 24 20 18 18 19 19 20 21 21 22 21 21 21 21 21 21 23 21 27 14 16
30 45 43 41 39 36 33 31 29 26 23 22 19 19 19 21 22 22 23 25 26 24 20 16 15 16 18 20 21 22 22 23 23 24 24 22 21 21 22 20 21 14 18
26 47 45 43 41 38 34 31 28 27 23 22 20 17 17 20 21 22 23 23 21 20 17 13 14 16 18 20 21 22 24 28 30 30 25 23 20 18 19 18 19 19 21
26 51 47 45 42 40 37 33 31 29 25 23 21 15 15 20 21 22 22 23 20 18 15 13 14 18 19 21 20 21 28 34 29 24 22 13 21 14 14 17 19 19 21
22 56 48 46 43 40 36 34 31 32 30 26 21 16 15 19 21 22 21 20 18 15 14 13 16 19 21 20 18 21 29 31 29 26 22 16 16 13 10 12 17 20 20
28 50 50 47 44 41 39 35 33 33 32 28 22 16 15 17 20 21 21 17 15 14 14 16 19 21 20 19 18 20 27 26 17 23 15 11 10 16 8 8 12 15 17
31 45 45 47 45 42 40 38 37 37 34 29 24 17 15 16 20 21 21 19 15 14 16 19 22 24 22 18 17 17 23 20 22 25 5 8 10 13 11 6 7 9 11
37 41 38 48 45 43 40 39 39 39 37 30 25 19 16 16 20 23 22 21 19 18 18 19 20 23 24 22 20 18 19 21 12 19 8 11 16 20 12 9 7 7 7
35 30 44 51 49 45 42 41 41 40 37 30 26 23 19 17 22 25 24 23 22 22 22 22 22 21 20 20 19 16 15 19 13 17 12 18 17 18 16 12 9 7 9
39 29 45 56 55 51 49 45 43 40 36 30 27 25 23 21 25 28 28 27 25 25 25 25 25 26 25 23 20 18 17 15 14 1 11 18 24 23 22 17 13 11 10
44 43 40 47 54 50 49 48 43 38 35 32 29 27 26 26 30 33 33 31 28 27 27 27 27 27 28 28 26 22 21 20 20 3 21 27 30 29 27 23 18 16 15
51 48 49 45 43 44 35 46 44 42 39 35 33 32 30 28 27 35 36 36 34 32 31 31 31 31 33 31 29 21 18 22 27 15 27 31 29 31 32 29 25 21 20
51 52 55 55 46 50 46 29 41 40 38 36 32 31 30 25 29 23 32 35 38 37 36 35 34 36 38 36 32 25 19 17 9 16 24 33 31 37 37 32 29 28 25
47 52 48 54 42 37 44 29 27 22 22 26 29 29 25 34 32 39 39 35 29 42 39 37 35 31 34 37 36 33 33 27 28 25 32 36 37 43 35 31 29 31 32
48 40 34 27 35 46 35 31 23 35 24 12 22 23 26 36 35 40 36 40 34 25 29 28 28 28 33 30 34 35 44 46 42 42 39 43 44 43 34 29 32 32 32
35 24 31 42 18 48 36 42 46 41 36 25 27 29 28 28 31 37 37 41 43 32 30 33 35 36 42 38 36 38 45 49 47 46 47 44 41 43 37 33 33 33 36
18 17 15 52 56 49 59 45 44 47 38 24 33 23 29 35 34 36 36 37 43 38 36 38 42 40 47 39 36 39 46 45 43 54 56 56 55 50 38 39 35 34 34
30 29 48 55 36 36 31 28 25 23 29 28 37 27 33 42 35 43 46 41 34 36 42 48 59 52 40 41 48 47 54 56 54 41 38 39 43 44 44 40 43 43 42
34 34 36 49 41 29 30 17 15 11 12 13 37 35 47 35 42 31 45 53 43 42 51 55 67 46 32 33 49 47 55 54 51 41 41 45 50 47 49 55 55 53 53
32 29 37 41 28 19 22 26 23 26 28 19 16 28 42 45 31 48 57 47 52 45 42 36 47 47 35 40 53 63 61 48 57 52 52 46 50 60 69 58 58 58 57
50 50 42 36 26 23 26 25 20 29 30 27 22 20 13 20 25 28 50 58 48 59 49 43 38 41 40 49 55 66 48 79 53 53 26 49 66 65 63 66 66 58 53
29 31 34 31 31 34 31 35 35 22 23 20 32 42 34 19 21 28 34 45 49 51 50 46 46 34 44 43 41 53 46 86 66 50 36 53 79 62 52 42 42 42 45
25 20 20 26 31 31 30 30 28 35 32 21 25 23 23 28 20 23 35 46 52 55 36 48 60 43 55 57 54 34 16 28 41 28 44 67 75 69 56 46 47 46 46
24 31 32 29 27 31 34 26 18 16 16 24 31 37 32 25 35 32 29 25 30 33 35 23 6 33 32 23 37 43 61 65 42 55 61 47 48 61 64 65 65 56 58
16 18 19 19 21 15 22 26 25 18 21 20 20 32 29 21 19 22 27 29 19 21 23 26 27 39 35 36 38 45 54 61 65 67 65 79 71 64 55 64 65 65 63
20 18 13 13 12 9 10 14 17 16 19 10 16 17 16 21 22 19 27 35 39 35 33 26 26 36 46 54 57 60 62 68 70 69 72 72 69 64 61 65 64 56 49
Wind_Direction_500mb
144 154 148 148 151 153 152 154 157 158 151 139 128 122 121 125 124 127 129 131 133 131 127 119 120 126 128 129 128 124 120 114 112 109 102 97 96 94 89 87 81 61 68
155 157 151 153 155 157 158 160 163 166 159 147 134 126 123 126 128 130 133 134 139 138 130 123 120 128 129 128 119 113 111 105 99 91 85 79 80 84 89 89 80 77 71
169 160 156 157 159 161 163 167 170 173 167 155 144 135 126 130 135 137 135 139 145 146 145 141 134 136 134 128 118 112 106 100 96 86 75 42 53 71 83 86 85 79 71
169 165 162 162 162 163 165 171 176 179 174 165 156 148 140 143 145 145 139 142 141 144 147 150 149 146 142 130 122 118 110 109 95 84 83 97 354 48 71 82 80 76 70
180 170 167 166 165 167 170 173 179 181 177 173 166 157 151 154 155 155 150 149 149 152 158 164 162 154 149 137 131 124 121 110 98 79 55 145 301 15 45 74 84 78 65
167 171 169 171 171 171 173 176 182 186 181 176 175 169 158 161 166 166 166 164 163 167 172 173 168 162 156 150 148 139 135 122 96 83 73 239 298 305 344 54 67 72 71
159 184 178 177 175 174 175 177 182 186 183 182 182 179 171 169 176 178 182 183 179 180 175 174 175 171 168 166 161 152 147 134 105 94 136 295 281 314 322 0 34 53 63
174 190 188 182 178 175 175 178 181 185 184 186 189 188 184 183 187 190 190 191 188 183 179 178 177 176 176 175 174 169 160 152 110 112 152 236 275 288 297 318 340 353 4
175 191 187 183 178 176 176 177 181 185 187 191 195 195 193 197 197 200 200 198 194 191 187 183 182 186 192 192 191 193 189 180 155 141 139 260 275 285 289 286 297 313 325
176 190 180 182 180 178 177 177 180 186 190 198 202 203 204 206 205 205 206 207 204 201 199 195 196 197 202 210 218 221 223 220 199 170 147 257 265 277 278 278 284 289 297
177 191 185 186 182 179 180 178 180 188 197 201 206 210 215 215 209 208 210 210 212 212 212 212 211 213 216 219 222 230 244 247 241 236 275 256 258 271 278 273 276 285 294
175 186 184 187 184 169 184 184 185 190 194 202 207 211 216 218 220 217 214 219 216 217 217 220 223 226 228 229 228 227 259 280 251 202 238 254 260 269 279 266 265 272 282
190 192 183 192 180 171 182 181 195 196 197 200 207 222 217 201 207 228 223 228 225 225 227 227 230 234 236 236 237 240 262 265 272 229 247 256 260 272 274 267 264 267 270
198 176 180 164 160 174 194 191 189 198 199 208 213 221 221 197 200 229 214 235 245 234 232 240 236 244 251 249 237 208 250 251 234 239 252 255 260 270 277 273 271 272 273
195 189 201 116 150 199 160 169 167 196 205 183 218 236 242 209 202 219 219 231 248 255 241 232 249 248 261 268 252 232 225 228 232 229 237 246 249 263 269 272 272 274 275
200 176 198 251 211 204 196 171 183 174 181 194 215 248 256 252 215 232 233 225 227 232 239 252 252 226 236 245 253 251 241 234 238 241 243 249 259 263 272 269 268 270 273
150 209 219 178 219 213 195 189 193 194 189 194 216 221 257 258 242 235 247 244 230 232 243 244 234 226 225 230 238 249 258 258 250 243 245 244 250 258 262 268 268 267 271
144 143 149 166 167 165 149 171 189 203 201 219 216 228 244 250 246 255 239 241 234 230 239 240 243 256 246 253 258 250 244 248 257 255 257 264 268 265 261 256 259 266 268
159 173 158 173 187 164 159 161 158 167 189 224 261 229 249 255 239 258 259 256 242 239 238 240 251 265 252 257 262 265 263 250 252 241 250 264 268 266 265 272 266 264 265
201 198 173 177 191 171 168 165 171 190 206 228 222 228 254 262 284 273 258 257 266 252 251 261 278 284 269 255 275 280 263 266 234 245 240 253 253 257 267 272 278 272 265
204 181 155 162 167 182 183 195 207 228 269 269 274 290 294 272 263 280 265 264 266 254 263 286 266 262 271 279 295 288 289 299 312 298 244 265 261 266 269 264 268 272 263
125 149 170 169 182 197 202 216 215 219 219 270 267 277 285 300 289 289 293 270 255 262 276 281 274 305 296 290 290 321 337 328 307 290 290 287 274 273 272 265 268 270 269
119 119 151 177 200 186 189 216 238 242 257 270 288 282 281 286 280 286 283 277 268 263 293 279 329 323 283 292 253 285 292 256 296 280 287 277 264 262 266 253 250 255 251
147 166 180 191 209 202 189 216 208 205 236 258 278 282 286 289 293 295 287 305 295 295 290 327 291 251 224 253 240 243 258 254 261 278 278 275 269 263 263 265 265 261 261
127 187 207 207 211 215 203 218 220 222 240 254 266 273 285 296 305 313 307 267 278 304 308 310 268 264 259 265 253 254 254 260 264 262 269 275 276 262 271 272 272 269 278
120 112 121 137 140 145 168 199 223 220 237 254 270 299 287 264 261 281 279 280 274 269 264 262 264 265 264 259 257 255 256 257 257 261 262 262 267 278 269 260 263 271 268
Wind_Speed_850mb
25 45 45 41 39 37 35 32 29 26 23 21 21 22 22 21 23 23 23 25 29 27 24 20 18 18 19 19 20 21 21 22 21 21 21 21 21 21 23 21 27 14 16
30 45 43 41 39 36 33 31 29 26 23 22 19 19 19 21 22 22 23 25 26 24 20 16 15 16 18 20 21 22 22 23 23 24 24 22 21 21 22 20 21 14 18
26 47 45 43 41 38 34 31 28 27 23 22 20 17 17 20 21 22 23 23 21 20 17 13 14 16 18 20 21 22 24 28 30 30 25 23 20 18 19 18 19 19 21
26 51 47 45 42 40 37 33 31 29 25 23 21 15 15 20 21 22 22 23 20 18 15 13 14 18 19 21 20 21 28 34 29 24 22 13 21 14 14 17 19 19 21
22 56 48 46 43 40 36 34 31 32 30 26 21 16 15 19 21 22 21 20 18 15 14 13 16 19 21 20 18 21 29 31 29 26 22 16 16 13 10 12 17 20 20
28 50 50 47 44 41 39 35 33 33 32 28 22 16 15 17 20 21 21 17 15 14 14 16 19 21 20 19 18 20 27 26 17 23 15 11 10 16 8 8 12 15 17
31 45 45 47 45 42 40 38 37 37 34 29 24 17 15 16 20 21 21 19 15 14 16 19 22 24 22 18 17 17 23 20 22 25 5 8 10 13 11 6 7 9 11
37 41 38 48 45 43 40 39 39 39 37 30 25 19 16 16 20 23 22 21 19 18 18 19 20 23 24 22 20 18 19 21 12 19 8 11 16 20 12 9 7 7 7
35 30 44 51 49 45 42 41 41 40 37 30 26 23 19 17 22 25 24 23 22 22 22 22 22 21 20 20 19 16 15 19 13 17 12 18 17 18 16 12 9 7 9
39 29 45 56 55 51 49 45 43 40 36 30 27 25 23 21 25 28 28 27 25 25 25 25 25 26 25 23 20 18 17 15 14 1 11 18 24 23 22 17 13 11 10
44 43 40 47 54 50 49 48 43 38 35 32 29 27 26 26 30 33 33 31 28 27 27 27 27 27 28 28 26 22 21 20 20 3 21 27 30 29 27 23 18 16 15
51 48 49 45 43 44 35 46 44 42 39 35 33 32 30 28 27 35 36 36 34 32 31 31 31 31 33 31 29 21 18 22 27 15 27 31 29 31 32 29 25 21 20
51 52 55 55 46 50 46 29 41 40 38 36 32 31 30 25 29 23 32 35 38 37 36 35 34 36 38 36 32 25 19 17 9 16 24 33 31 37 37 32 29 28 25
47 52 48 54 42 37 44 29 27 22 22 26 29 29 25 34 32 39 39 35 29 42 39 37 35 31 34 37 36 33 33 27 28 25 32 36 37 43 35 31 29 31 32
48 40 34 27 35 46 35 31 23 35 24 12 22 23 26 36 35 40 36 40 34 25 29 28 28 28 33 30 34 35 44 46 42 42 39 43 44 43 34 29 32 32 32
35 24 31 42 18 48 36 42 46 41 36 25 27 29 28 28 31 37 37 41 43 32 30 33 35 36 42 38 36 38 45 49 47 46 47 44 41 43 37 33 33 33 36
18 17 15 52 56 49 59 45 44 47 38 24 33 23 29 35 34 36 36 37 43 38 36 38 42 40 47 39 36 39 46 45 43 54 56 56 55 50 38 39 35 34 34
30 29 48 55 36 36 31 28 25 23 29 28 37 27 33 42 35 43 46 41 34 36 42 48 59 52 40 41 48 47 54 56 54 41 38 39 43 44 44 40 43 43 42
34 34 36 49 41 29 30 17 15 11 12 13 37 35 47 35 42 31 45 53 43 42 51 55 67 46 32 33 49 47 55 54 51 41 41 45 50 47 49 55 55 53 53
32 29 37 41 28 19 22 26 23 26 28 19 16 28 42 45 31 48 57 47 52 45 42 36 47 47 35 40 53 63 61 48 57 52 52 46 50 60 69 58 58 58 57
50 50 42 36 26 23 26 25 20 29 30 27 22 20 13 20 25 28 50 58 48 59 49 43 38 41 40 49 55 66 48 79 53 53 26 49 66 65 63 66 66 58 53
29 31 34 31 31 34 31 35 35 22 23 20 32 42 34 19 21 28 34 45 49 51 50 46 46 34 44 43 41 53 46 86 66 50 36 53 79 62 52 42 42 42 45
25 20 20 26 31 31 30 30 28 35 32 21 25 23 23 28 20 23 35 46 52 55 36 48 60 43 55 57 54 34 16 28 41 28 44 67 75 69 56 46 47 46 46
24 31 32 29 27 31 34 26 18 16 16 24 31 37 32 25 35 32 29 25 30 33 35 23 6 33 32 23 37 43 61 65 42 55 61 47 48 61 64 65 65 56 58
16 18 19 19 21 15 22 26 25 18 21 20 20 32 29 21 19 22 27 29 19 21 23 26 27 39 35 36 38 45 54 61 65 67 65 79 71 64 55 64 65 65 63
20 18 13 13 12 9 10 14 17 16 19 10 16 17 16 21 22 19 27 35 39 35 33 26 26 36 46 54 57 60 62 68 70 69 72 72 69 64 61 65 64 56 49
Wind_Direction_850mb
144 154 148 148 151 153 152 154 157 158 151 139 128 122 121 125 124 127 129 131 133 131 127 119 120 126 128 129 128 124 120 114 112 109 102 97 96 94 89 87 81 61 68
155 157 151 153 155 157 158 160 163 166 159 147 134 126 123 126 128 130 133 134 139 138 130 123 120 128 129 128 119 113 111 105 99 91 85 79 80 84 89 89 80 77 71
169 160 156 157 159 161 163 167 170 173 167 155 144 135 126 130 135 137 135 139 145 146 145 141 134 136 134 128 118 112 106 100 96 86 75 42 53 71 83 86 85 79 71
169 165 162 162 162 163 165 171 176 179 174 165 156 148 140 143 145 145 139 142 141 144 147 150 149 146 142 130 122 118 110 109 95 84 83 97 354 48 71 82 80 76 70
180 170 167 166 165 167 170 173 179 181 177 173 166 157 151 154 155 155 150 149 149 152 158 164 162 154 149 137 131 124 121 110 98 79 55 145 301 15 45 74 84 78 65
167 171 169 171 171 171 173 176 182 186 181 176 175 169 158 161 166 166 166 164 163 167 172 173 168 162 156 150 148 139 135 122 96 83 73 239 298 305 344 54 67 72 71
159 184 178 177 175 174 175 177 182 186 183 182 182 179 171 169 176 178 182 183 179 180 175 174 175 171 168 166 161 152 147 134 105 94 136 295 281 314 322 0 34 53 63
174 190 188 182 178 175 175 178 181 185 184 186 189 188 184 183 187 190 190 191 188 183 179 178 177 176 176 175 174 169 160 152 110 112 152 236 275 288 297 318 340 353 4
175 191 187 183 178 176 176 177 181 185 187 191 195 195 193 197 197 200 200 198 194 191 187 183 182 186 192 192 191 193 189 180 155 141 139 260 275 285 289 286 297 313 325
176 190 180 182 180 178 177 177 180 186 190 198 202 203 204 206 205 205 206 207 204 201 199 195 196 197 202 210 218 221 223 220 199 170 147 257 265 277 278 278 284 289 297
177 191 185 186 182 179 180 178 180 188 197 201 206 210 215 215 209 208 210 210 212 212 212 212 211 213 216 219 222 230 244 247 241 236 275 256 258 271 278 273 276 285 294
175 186 184 187 184 169 184 184 185 190 194 202 207 211 216 218 220 217 214 219 216 217 217 220 223 226 228 229 228 227 259 280 251 202 238 254 260 269 279 266 265 272 282
190 192 183 192 180 171 182 181 195 196 197 200 207 222 217 201 207 228 223 228 225 225 227 227 230 234 236 236 237 240 262 265 272 229 247 256 260 272 274 267 264 267 270
198 176 180 164 160 174 194 191 189 198 199 208 213 221 221 197 200 229 214 235 245 234 232 240 236 244 251 249 237 208 250 251 234 239 252 255 260 270 277 273 271 272 273
195 189 201 116 150 199 160 169 167 196 205 183 218 236 242 209 202 219 219 231 248 255 241 232 249 248 261 268 252 232 225 228 232 229 237 246 249 263 269 272 272 274 275
200 176 198 251 211 204 196 171 183 174 181 194 215 248 256 252 215 232 233 225 227 232 239 252 252 226 236 245 253 251 241 234 238 241 243 249 259 263 272 269 268 270 273
150 209 219 178 219 213 195 189 193 194 189 194 216 221 257 258 242 235 247 244 230 232 243 244 234 226 225 230 238 249 258 258 250 243 245 244 250 258 262 268 268 267 271
144 143 149 166 167 165 149 171 189 203 201 219 216 228 244 250 246 255 239 241 234 230 239 240 243 256 246 253 258 250 244 248 257 255 257 264 268 265 261 256 259 266 268
159 173 158 173 187 164 159 161 158 167 189 224 261 229 249 255 239 258 259 256 242 239 238 240 251 265 252 257 262 265 263 250 252 241 250 264 268 266 265 272 266 264 265
201 198 173 177 191 171 168 165 171 190 206 228 222 228 254 262 284 273 258 257 266 252 251 261 278 284 269 255 275 280 263 266 234 245 240 253 253 257 267 272 278 272 265
204 181 155 162 167 182 183 195 207 228 269 269 274 290 294 272 263 280 265 264 266 254 263 286 266 262 271 279 295 288 289 299 312 298 244 265 261 266 269 264 268 272 263
125 149 170 169 182 197 202 216 215 219 219 270 267 277 285 300 289 289 293 270 255 262 276 281 274 305 296 290 290 321 337 328 307 290 290 287 274 273 272 265 268 270 269
119 119 151 177 200 186 189 216 238 242 257 270 288 282 281 286 280 286 283 277 268 263 293 279 329 323 283 292 253 285 292 256 296 280 287 277 264 262 266 253 250 255 251
147 166 180 191 209 202 189 216 208 205 236 258 278 282 286 289 293 295 287 305 295 295 290 327 291 251 224 253 240 243 258 254 261 278 278 275 269 263 263 265 265 261 261
127 187 207 207 211 215 203 218 220 222 240 254 266 273 285 296 305 313 307 267 278 304 308 310 268 264 259 265 253 254 254 260 264 262 269 275 276 262 271 272 272 269 278
120 112 121 137 140 145 168 199 223 220 237 254 270 299 287 264 261 281 279 280 274 269 264 262 264 265 264 259 257 255 256 257 257 261 262 262 267 278 269 260 263 271 268